{"data":{"norad_id":69550,"intl_designator":"2026-135E","name":"STARLINK-37865","alt_names":[],"object_type":"PAYLOAD","status":"ACTIVE","operator":null,"country":"US","launch_date":"2026-06-15","launch_site_code":"AFWTR","launch_vehicle":null,"mission":null,"orbit_class":"UNKNOWN","rcs_meters":null,"size_class":null,"mass_kg":null,"dimensions":null,"purposes":["comms"],"wikipedia_slug":null,"has_3d_model":false,"image_url":null,"decayed_at":null,"tle_current":{"epoch":"2026-09-20T00:27:17.961696Z","epoch_age_seconds":63237,"freshness":"FRESH","line1":"1 69550U 26135E   26263.01895789  .00011770  00000+0  36619-3 0  9991","line2":"2 69550  97.2852 290.6674 0002007 104.6245 255.5220 15.33456270 14928","mean_motion":15.3345627,"eccentricity":0.0002007,"inclination_deg":97.2852,"raan_deg":290.6674,"arg_perigee_deg":104.6245,"mean_anomaly_deg":255.522,"bstar":0.00036619,"rev_number":1492,"period_min":93.905514501564,"perigee_km":464.13612321135,"apogee_km":466.88316297388,"semimajor_km":6843.6466430926,"source":"CELESTRAK","updated_at":"2026-09-20T09:00:44.242404Z"}}}